Flag for Germany Weather past 2 weeks in Oberhausen, North Rhine-Westphalia, Germany

Now
45 °F

Broken clouds.


Feels Like: 38 °F
Forecast: 31 / 46 °F
Wind: 15 mph from Northwest

Location: Duesseldorf

Current Time: Feb 27, 2015 at 2:30:26 PM

Latest Report: Feb 27, 2015 at 1:50 PM


Visibility: N/A

Pressure: 30.01 "Hg

Humidity: 61%

Dew point: 32 °F

Location of OberhausenLocation

Historic Weather in Oberhausen — Graph

°F

Oberhausen temperature yesterday

Maximum temperature yesterday: 50 °F (at 1:20 PM)
Minimum temperature yesterday: 37 °F (at 4:50 AM)
Average temperature yesterday: 44 °F

Past Weeks' High & Low Weather Summary

 TemperatureHumidityPressure
High54 °F (Feb 14, 2:20 PM)100% (Feb 15, 4:20 AM)30.77 "Hg (Feb 15, 4:20 AM)
Low27 °F (Feb 15, 7:50 AM)51% (Feb 14, 2:50 PM)29.36 "Hg (Feb 21, 3:50 AM)
Average40 °F82%29.97 "Hg
* Reported Feb 12 1:20 PM — Feb 27 1:20 PM, Oberhausen, Weather by CustomWeather, © 2015

Note: Actual official high and low records may vary slightly from our data, if they occured in-between our weather recording intervals... More about our weather records

Advertising

Oberhausen weather history for previous 24 hours

 ConditionsComfort  
Time TempWeatherWind HumidityBarometerVisibility
1:20 PM
Fri, Feb 27
45 °FBroken clouds.13 mph66%29.98 "HgN/A
12:50 PM45 °FBroken clouds.14 mph66%29.98 "HgN/A
12:20 PM43 °FBroken clouds.15 mph76%29.98 "HgN/A
11:50 AM43 °FBroken clouds.13 mph81%29.98 "HgN/A
11:20 AM43 °FBroken clouds.12 mph81%29.95 "HgN/A
10:50 AM43 °FBroken clouds.12 mph81%29.95 "HgN/A
10:20 AM43 °FBroken clouds.10 mph87%29.95 "HgN/A
9:50 AM43 °FBroken clouds.13 mph87%29.92 "HgN/A
9:20 AM41 °FPartly sunny.12 mph93%29.92 "HgN/A
8:50 AM41 °FPartly sunny.13 mph93%29.92 "HgN/A
8:20 AM41 °FBroken clouds.9 mph93%29.89 "HgN/A
7:50 AM39 °FBroken clouds.10 mph93%29.89 "HgN/A
7:20 AM39 °FLight rain. Partly cloudy.17 mph93%29.86 "HgN/A
6:50 AM39 °FLight rain. Mostly cloudy.17 mph93%29.86 "HgN/A
6:20 AM41 °FLight rain. Mostly cloudy.14 mph93%29.83 "HgN/A
5:50 AM41 °FLight rain. Mostly cloudy.14 mph93%29.83 "HgN/A
5:20 AM41 °FLight rain. Mostly cloudy.14 mph93%29.80 "HgN/A
4:20 AM43 °FRain. Passing clouds.14 mph93%29.77 "HgN/A
3:50 AM43 °FLight rain. Passing clouds.2 mph100%29.77 "Hg4 mi
3:20 AM43 °FLight rain. Passing clouds.5 mph100%29.77 "Hg4 mi
2:50 AM43 °FLight rain. Mostly cloudy.5 mph100%29.77 "Hg4 mi
2:20 AM43 °FLight rain. Mostly cloudy.9 mph100%29.77 "Hg4 mi
1:50 AM43 °FLight rain. Mostly cloudy.12 mph100%29.77 "Hg6 mi
1:20 AM43 °FLight rain. Mostly cloudy.12 mph100%29.77 "Hg6 mi
12:50 AM43 °FLight rain. Mostly cloudy.12 mph100%29.77 "Hg6 mi
12:20 AM43 °FLight rain. Passing clouds.10 mph100%29.77 "Hg6 mi
11:50 PM
Thu, Feb 26
43 °FLight rain. Passing clouds.12 mph100%29.77 "Hg4 mi
11:20 PM43 °FPassing clouds.14 mph100%29.80 "Hg3 mi
10:50 PM43 °FDrizzle. Mostly cloudy.14 mph100%29.80 "Hg2 mi
10:20 PM43 °FDrizzle. Mostly cloudy.15 mph100%29.80 "Hg2 mi
9:50 PM43 °FDrizzle. Mostly cloudy.13 mph100%29.83 "Hg3 mi
9:20 PM45 °FDrizzle. Mostly cloudy.14 mph93%29.83 "Hg4 mi
8:50 PM45 °FDrizzle. Mostly cloudy.13 mph87%29.83 "Hg4 mi
8:20 PM45 °FDrizzle. Mostly cloudy.12 mph93%29.86 "Hg4 mi
7:50 PM46 °FLight rain. Passing clouds.18 mph82%29.86 "HgN/A
7:20 PM48 °FLight rain. Passing clouds.16 mph71%29.86 "HgN/A
6:50 PM48 °FPassing clouds.16 mph66%29.89 "HgN/A
6:20 PM48 °FPassing clouds.20 mph66%29.89 "HgN/A
5:50 PM48 °FPartly sunny.17 mph66%29.89 "HgN/A
5:20 PM48 °FPartly sunny.16 mph66%29.89 "HgN/A
4:50 PM48 °FLight rain. Partly sunny.16 mph66%29.92 "HgN/A
4:20 PM48 °FPartly sunny.16 mph66%29.92 "HgN/A
3:50 PM48 °FBroken clouds.17 mph66%29.92 "HgN/A
3:20 PM48 °FPartly sunny.17 mph66%29.95 "HgN/A
2:50 PM50 °FPartly sunny.20 mph62%29.95 "HgN/A
2:20 PM50 °FPartly sunny.17 mph62%29.98 "HgN/A
Weather by CustomWeather, © 2015

See weather overviewHow to use our weather pages